Location: Chmeln�
(49.6483°N, 14.9871°E)
Time: 15:44:03
(UTC+00:00)

USA 238 DEB - Pass Details

Date: 18 September 2020
Orbit: 1006 x 1206 km, 63.4° (Epoch: 15 October)

Event Time Altitude Azimuth Distance (km) Brightness Sun altitude
Rises 19:32:42 0° 316° (NW) 3,945 8.0 -23.2°
Reaches altitude 10° 19:35:23 10° 313° (NW) 3,012 7.1 -23.6°
Maximum altitude 19:42:24 57° 237° (WSW) 1,349 4.2 -24.5°
Enters shadow 19:45:39 33° 175° (S) 1,854 4.6 -24.9°
